North Platte, NE

4:43 AM CST on January 18, 2018 (GMT -0600)
North Platte Regional-Bird

Weather History for KLBF - August, 2012

Change the Weather History Date:

Saturday, August 18, 2012

  Actual Average Record
Temperature  
Mean Temperature 65 °F 72 °F  
Max Temperature 82 °F 86 °F 102 °F (1970)
Min Temperature 47 °F 58 °F 44 °F (1978)
Degree Days  
Heating Degree Days 0 0  
Month to date heating degree days 8 0  
Since 1 June heating degree days 14 56  
Since 1 July heating degree days 8 5  
Cooling Degree Days 0 7  
Month to date cooling degree days 151 154  
Year to date cooling degree days 1037 613  
Since 1 June cooling degree days 958 585  
Growing Degree Days 14 (Base 50)    
Moisture  
Dew Point 42 °F    
Average Humidity 53    
Maximum Humidity 86    
Minimum Humidity 20    
Precipitation  
Precipitation 0.00 in 0.06 in 1.34 in (1963)
Month to date precipitation 0.96 1.56  
Year to date precipitation 9.11 15.49  
Snow  
Snow 0.00 in 0.00 in 0.00 in (2002)
Month to date snowfall 0.0 0.0  
Since 1 June snowfall 0.0 0.0  
Since 1 July snowfall 0.0 0.0  
Snow Depth 0.00 in    
Sea Level Pressure  
Sea Level Pressure 30.00 in    
Wind  
Wind Speed 10 mph (NNE)    
Max Wind Speed 29 mph    
Max Gust Speed 39 mph    
Visibility 10 miles    
Events      
T = Trace of Precipitation, MM = Missing Value Source: NWS Daily Summary

Daily Weather History Graph

Daily Weather History Graph

Search for Another Location

Airport or City:

Trip Planner

Search our weather history database for the weather conditions in past years. The results will help you decide how hot, cold, wet, or windy it might be!

Date:

Astronomy

Aug. 18, 2012 Rise Set
Actual Time 6:55 AM CDT 8:36 PM CDT
Civil Twilight 6:26 AM CDT 9:05 PM CDT
Nautical Twilight 5:50 AM CDT 9:40 PM CDT
Astronomical Twilight 5:12 AM CDT 10:18 PM CDT
Moon 8:07 AM CDT 8:51 PM CDT
Length of Visible Light 14h 39m
Length of Day
13h 40m
New Moon, 1% of the Moon is Illuminated
Aug 18
New Moon
Aug 24
First Quarter
Aug 31
Full
Sep 8
Last Quarter
Sep 15
New

Hourly Weather History & Observations

Time (CDT) Temp. Dew Point Humidity Pressure Visibility Wind Dir Wind Speed Gust Speed Precip Events Conditions
12:53 AM 53.1 °F 46.9 °F 80% 30.02 in 10.0 mi ESE 4.6 mph - N/A   Clear
1:53 AM 54.0 °F 46.9 °F 77% 30.00 in 10.0 mi East 6.9 mph - N/A   Scattered Clouds
2:53 AM 55.9 °F 46.0 °F 69% 30.00 in 10.0 mi Calm Calm - N/A   Partly Cloudy
3:53 AM 55.0 °F 45.0 °F 69% 29.99 in 10.0 mi Calm Calm - N/A   Partly Cloudy
4:53 AM 52.0 °F 45.0 °F 77% 30.00 in 10.0 mi North 3.5 mph - N/A   Partly Cloudy
5:53 AM 51.1 °F 44.1 °F 77% 29.99 in 10.0 mi Calm Calm - N/A   Clear
6:53 AM 48.2 °F 44.6 °F 87% 30.05 in 10.0 mi WNW 3.5 mph - N/A   Clear
7:53 AM 52.0 °F 46.9 °F 83% 30.01 in 10.0 mi Calm Calm - N/A   Clear
8:53 AM 59.0 °F 48.0 °F 67% 30.00 in 10.0 mi Calm Calm - N/A   Clear
9:53 AM 68.0 °F 48.9 °F 50% 29.99 in 10.0 mi WNW 6.9 mph - N/A   Clear
10:44 AM 75.2 °F 39.2 °F 27% 30.04 in 10.0 mi North 19.6 mph 29.9 mph N/A   Clear
10:53 AM 77.0 °F 39.9 °F 26% 29.98 in 10.0 mi NNE 16.1 mph 27.6 mph N/A   Clear
11:53 AM 80.1 °F 37.0 °F 21% 29.97 in 10.0 mi North 24.2 mph 31.1 mph N/A   Clear
12:53 PM 81.0 °F 36.0 °F 20% 29.97 in 10.0 mi North 19.6 mph 33.4 mph N/A   Clear
1:53 PM 81.0 °F 37.9 °F 21% 29.96 in 10.0 mi North 25.3 mph 34.5 mph N/A   Clear
2:53 PM 81.0 °F 39.0 °F 22% 29.95 in 10.0 mi North 25.3 mph 36.8 mph N/A   Clear
3:53 PM 82.0 °F 37.9 °F 21% 29.96 in 10.0 mi North 23.0 mph 33.4 mph N/A   Partly Cloudy
4:53 PM 80.1 °F 37.0 °F 21% 29.97 in 10.0 mi North 20.7 mph 29.9 mph N/A   Clear
5:53 PM 80.1 °F 36.0 °F 20% 29.98 in 10.0 mi NNE 17.3 mph 28.8 mph N/A   Clear
6:53 PM 78.1 °F 35.1 °F 21% 30.00 in 10.0 mi NNE 18.4 mph 24.2 mph N/A   Clear
7:53 PM 73.9 °F 37.9 °F 27% 30.01 in 10.0 mi NNE 11.5 mph 21.9 mph N/A   Clear
8:53 PM 68.0 °F 41.0 °F 37% 30.03 in 10.0 mi ENE 9.2 mph - N/A   Clear
9:53 PM 61.0 °F 41.0 °F 48% 30.05 in 10.0 mi East 5.8 mph - N/A   Clear
10:53 PM 54.0 °F 41.0 °F 62% 30.07 in 10.0 mi ENE 5.8 mph - N/A   Clear
11:53 PM 53.1 °F 42.1 °F 66% 30.08 in 10.0 mi East 3.5 mph - N/A   Clear